Wind_Speed
8 4 3 2 3 4 4 8 4 12 8 9 6 8 12 5 4 4 18 12 17 27 28 29 27 26 24 23 22 19 17 14 12 12 14 15 16 16 17 18 17 15 13 12 11 12 13 13 13
5 4 4 1 4 1 6 5 15 7 19 27 6 11 5 3 12 16 21 15 19 24 26 28 28 25 24 22 21 19 17 14 12 11 12 13 14 16 16 17 16 14 13 11 11 12 13 14 14
3 6 6 4 4 6 7 6 7 16 22 20 4 12 7 11 16 17 15 17 22 23 26 27 28 26 24 22 20 18 16 14 11 10 11 14 14 15 15 15 14 12 11 11 11 12 13 14 15
4 5 3 3 8 9 10 12 1 10 28 24 12 6 9 18 18 16 13 15 23 23 27 28 28 26 24 23 21 18 17 15 13 10 10 12 14 15 14 14 13 12 10 9 10 11 12 14 15
7 3 1 3 8 7 10 21 15 13 14 27 24 5 8 17 11 12 16 17 21 24 27 28 27 26 24 22 20 18 17 15 13 10 9 10 12 13 13 13 12 10 9 9 10 11 12 13 15
3 2 2 6 7 7 8 26 15 16 25 32 7 11 9 20 16 14 18 20 19 15 26 28 27 26 23 20 18 17 16 15 13 11 9 9 10 11 11 10 9 8 7 8 9 11 12 12 14
5 4 6 5 5 7 11 15 10 22 20 18 16 7 10 25 19 14 19 18 15 10 24 28 27 25 22 20 18 17 16 16 14 12 10 10 11 12 11 10 8 7 7 7 8 10 11 12 12
8 4 4 6 7 9 10 7 19 19 4 6 8 5 10 27 24 23 22 17 15 11 24 28 26 24 22 20 19 18 17 16 14 13 10 9 8 11 12 11 9 7 6 7 8 9 10 11 11
9 2 5 7 8 8 9 6 22 19 1 6 4 15 24 24 27 30 28 23 21 22 25 25 26 26 24 21 20 19 18 17 16 14 12 11 10 10 11 11 10 9 8 8 8 9 10 10 11
8 6 9 7 8 8 2 7 29 8 4 3 11 17 22 23 23 26 30 29 26 29 27 26 28 27 24 23 21 21 20 19 17 15 14 12 11 10 10 11 11 10 10 10 10 11 11 12 13
7 10 7 4 24 27 18 8 13 6 5 4 3 4 13 15 16 15 15 23 26 27 30 24 24 24 24 23 21 20 19 18 16 15 14 13 12 11 10 10 10 10 10 10 11 12 14 15 14
5 6 14 14 24 21 4 14 10 9 9 10 11 7 5 5 13 14 16 14 29 29 28 25 24 23 18 16 19 19 17 17 18 17 16 15 13 12 11 9 6 6 6 5 9 13 15 16 17
7 12 20 23 30 35 26 19 12 19 20 17 12 12 12 7 1 7 18 11 23 29 27 26 30 27 15 12 16 18 18 21 18 15 16 13 10 11 9 9 6 2 5 5 8 11 12 12 15
8 27 24 26 29 31 15 19 10 17 17 17 17 16 17 14 10 9 11 14 22 23 25 29 25 24 12 23 24 22 23 19 16 8 10 10 5 6 8 7 5 4 6 7 7 9 10 12 17
24 12 12 13 16 11 16 15 18 17 20 19 23 22 21 22 14 15 18 15 18 26 26 27 23 20 17 33 32 35 20 19 16 13 11 10 8 8 11 11 11 12 14 15 14 15 16 15 14
6 11 16 15 9 13 13 27 7 19 16 23 27 28 28 26 25 20 21 19 23 25 28 27 22 20 24 33 33 24 21 18 18 15 11 9 10 11 13 14 14 16 20 19 19 20 20 21 21
4 9 6 6 8 7 13 20 8 26 24 26 31 31 31 31 26 24 26 20 27 26 27 22 19 19 26 32 29 23 18 18 18 14 12 10 12 16 14 14 16 25 22 21 19 23 24 32 22
10 5 3 7 5 8 13 10 8 26 23 25 29 31 27 25 23 24 20 23 28 29 29 22 20 22 25 34 21 24 21 21 16 15 14 14 15 11 12 14 15 15 23 21 23 22 21 25 25
8 7 6 6 11 7 9 13 12 23 17 21 26 29 29 29 23 25 22 28 32 33 29 27 25 23 25 24 25 23 21 18 13 13 11 10 10 10 10 12 12 13 18 19 24 22 22 14 17
11 11 8 7 9 6 14 13 12 14 12 23 23 29 35 31 27 27 27 38 36 31 29 26 24 23 19 19 22 21 18 14 12 13 13 12 10 9 8 11 11 12 14 18 20 20 17 19 19
16 14 9 8 14 5 6 8 5 7 11 14 7 24 27 22 22 23 33 39 34 30 27 27 29 26 25 22 19 17 16 16 15 14 15 12 10 8 11 12 12 14 14 14 14 16 16 20 18
17 10 15 15 10 6 6 7 5 5 6 5 6 14 18 26 30 34 36 35 35 34 33 30 29 25 22 21 21 23 21 24 20 18 14 11 10 8 8 7 8 9 9 11 14 13 12 16 17
15 15 16 18 6 4 4 3 7 3 5 4 6 17 18 36 40 42 43 40 38 37 35 32 27 26 24 21 22 23 20 20 19 13 9 7 7 7 6 5 5 7 9 10 10 12 16 18 22
14 12 11 6 6 10 11 7 5 2 5 3 9 25 30 33 43 40 36 34 31 27 28 28 28 25 22 19 19 18 19 18 14 10 9 10 10 9 8 8 8 10 11 14 15 17 19 21 23
14 15 6 4 6 8 8 5 7 5 5 5 17 25 29 34 37 36 31 25 21 18 17 16 16 19 18 18 16 15 14 13 11 10 10 8 7 7 8 10 12 14 17 19 22 24 26 27 28
20 14 5 7 4 4 4 5 5 7 7 2 29 30 43 39 31 28 26 24 22 20 18 18 18 20 17 17 16 13 12 10 9 7 6 7 7 9 11 14 16 18 20 21 23 24 26 27 29
20 17 11 6 3 4 1 4 4 3 6 16 28 32 34 35 40 36 32 29 26 22 16 13 13 15 13 13 11 9 7 5 4 4 5 7 10 12 14 16 18 20 21 22 23 24 25 26 28
23 7 7 1 7 4 1 3 4 6 7 10 18 26 28 36 44 40 34 29 22 18 15 12 10 10 9 7 4 2 1 1 3 5 8 10 13 15 16 18 20 20 20 19 19 20 21 23 23
4 19 2 7 5 6 5 4 3 7 7 3 7 21 40 39 40 38 32 23 16 14 15 15 13 9 6 4 3 4 4 6 8 9 11 13 14 16 16 19 18 18 18 18 20 20 22 21 23
6 3 8 7 3 3 5 3 6 7 14 8 11 20 23 35 41 34 30 24 21 19 17 14 13 8 5 2 4 6 8 10 11 12 12 13 14 17 18 17 19 19 20 20 22 21 21 22 23
Wind_Direction
269 257 216 169 76 70 249 258 220 265 318 295 270 152 110 74 167 198 150 155 168 174 171 168 173 170 169 167 163 160 155 146 141 140 149 151 150 149 151 152 152 149 145 144 145 145 143 139 141
255 194 184 158 111 164 256 235 254 281 267 283 133 108 65 102 139 140 150 172 171 174 175 173 175 174 173 171 167 164 159 153 146 141 147 153 151 151 154 157 158 155 153 149 150 152 149 147 149
213 199 172 150 161 201 235 218 261 279 290 316 300 100 90 136 135 150 162 154 168 177 179 179 177 178 176 174 171 168 164 161 154 147 150 157 155 156 158 161 166 166 164 160 158 160 157 155 153
161 173 226 141 210 249 238 267 241 311 308 311 284 86 95 163 159 178 173 164 169 180 180 180 180 181 179 177 174 173 172 169 165 158 157 161 161 162 163 165 166 169 169 166 164 166 164 160 160
173 180 198 216 242 256 259 263 286 275 262 276 279 167 127 169 162 152 172 183 184 180 181 181 182 183 182 179 177 177 179 177 174 167 162 165 170 171 170 171 171 173 177 175 173 173 172 168 166
190 177 115 223 244 265 287 280 294 273 272 269 262 147 155 164 168 156 173 175 178 190 186 183 183 185 185 184 183 181 183 184 183 177 172 172 178 183 184 181 179 179 186 186 184 183 182 178 174
163 112 215 204 236 274 256 288 285 282 278 248 224 145 142 153 161 151 174 179 173 200 195 186 184 184 185 187 187 187 189 191 193 192 188 186 186 190 195 198 197 195 192 195 198 196 195 192 187
216 119 210 213 227 267 270 306 304 280 269 187 175 151 165 167 167 167 175 184 191 189 189 189 188 187 189 189 188 191 192 195 200 203 204 202 204 203 201 203 205 208 211 201 203 210 211 211 203
217 185 212 222 198 236 284 355 299 307 238 67 34 136 170 165 161 170 177 183 188 182 188 194 194 194 193 192 193 191 192 196 203 210 214 215 215 216 216 213 211 213 215 218 217 220 222 225 223
191 210 221 203 210 250 233 314 306 302 309 54 92 130 148 153 167 174 183 186 193 187 183 190 194 195 193 195 195 194 196 200 207 214 222 229 231 232 229 226 225 225 222 223 225 230 235 238 241
215 231 209 265 241 262 274 279 283 323 310 241 222 197 145 166 189 172 169 200 196 201 187 190 190 192 193 194 194 197 200 206 216 226 229 232 237 242 244 233 234 239 245 249 252 249 246 249 254
255 245 229 250 260 261 222 279 267 243 247 301 303 262 226 193 187 208 250 178 198 209 207 179 188 194 181 190 196 200 210 220 222 226 232 231 236 241 233 221 218 247 264 286 292 282 283 284 283
227 251 254 257 255 258 266 261 241 251 264 265 277 262 257 259 219 200 231 203 190 200 203 175 182 184 168 202 220 208 208 217 220 226 233 232 243 249 229 221 197 195 236 284 306 315 313 293 293
235 235 245 253 256 256 251 264 230 242 238 257 260 252 253 259 251 250 243 193 187 194 195 194 198 208 195 207 219 214 215 221 212 192 196 193 183 198 218 229 231 247 264 277 286 283 297 299 289
237 263 261 240 239 241 253 258 244 245 231 229 249 255 246 248 241 243 257 234 211 204 195 193 195 210 198 212 219 223 217 195 191 187 196 205 204 196 206 230 237 239 248 250 259 256 257 258 256
211 236 248 254 228 249 204 254 236 253 252 234 236 243 248 245 245 236 246 240 203 195 185 186 195 205 216 212 215 209 202 207 215 222 215 223 219 219 221 235 239 242 244 252 257 256 263 260 255
235 245 227 266 201 218 202 252 242 248 243 252 247 246 247 248 239 236 236 230 197 185 180 173 183 203 206 208 202 204 203 205 215 216 224 241 244 240 260 277 263 261 251 256 260 265 259 260 256
224 210 203 200 239 199 240 253 256 261 238 236 245 252 237 230 221 230 226 197 181 180 180 168 174 184 190 188 192 202 197 203 219 232 246 250 234 228 255 266 275 268 259 264 268 281 275 267 278
234 227 240 225 244 229 243 249 241 252 228 241 246 239 229 218 228 224 201 179 175 179 172 161 157 161 186 195 201 212 217 224 222 217 238 247 232 240 253 260 250 259 266 274 270 279 298 277 281
225 223 240 278 259 180 251 249 231 236 236 217 236 209 210 217 223 222 187 177 182 175 169 161 161 160 174 181 188 200 193 208 209 232 227 225 249 269 264 258 257 260 266 269 269 275 282 276 285
218 220 221 230 276 248 259 263 244 235 203 188 217 216 209 215 195 177 174 180 174 161 164 167 168 176 177 183 188 199 201 204 213 215 216 229 237 237 262 259 256 262 269 271 267 270 276 273 276
225 204 227 240 251 245 162 257 259 216 169 157 128 165 149 150 152 154 157 164 169 172 183 182 185 188 190 190 195 209 211 210 204 210 209 227 244 247 239 238 237 246 259 271 270 261 257 260 266
225 225 231 236 217 217 242 96 269 237 183 177 154 113 133 148 152 147 148 153 165 175 182 185 188 190 197 208 205 207 195 193 188 188 198 190 193 197 205 231 249 249 256 260 248 249 254 259 257
215 232 232 232 204 237 237 152 268 197 209 196 97 132 136 131 140 138 138 144 146 150 168 180 185 189 191 187 179 184 192 192 191 191 184 177 185 194 212 231 253 268 270 268 266 264 267 268 265
213 220 236 248 216 227 215 163 214 219 246 197 134 137 130 138 139 140 138 136 134 140 149 161 169 161 168 180 181 190 197 200 201 196 195 195 206 226 248 257 261 265 266 269 269 270 270 270 270
224 216 178 201 172 188 217 202 228 198 178 175 137 144 140 145 138 131 129 128 126 126 129 132 136 136 144 151 154 158 166 179 193 210 238 264 284 292 292 293 294 294 290 285 282 280 278 275 271
226 217 195 127 349 109 251 333 35 13 143 123 134 139 138 140 138 133 129 125 124 120 115 118 126 124 130 133 139 148 160 183 213 248 274 288 298 300 304 309 309 306 304 301 297 293 289 284 279
211 200 180 315 147 157 254 189 200 33 359 146 141 137 137 135 134 132 128 124 123 122 120 121 119 117 113 112 110 112 143 284 307 317 319 319 318 321 322 322 317 314 313 311 305 302 299 292 289
181 208 195 123 153 148 158 248 180 128 78 336 116 143 140 140 138 137 129 120 126 137 134 124 117 109 91 62 25 354 340 335 333 333 330 325 326 324 325 326 326 321 318 316 318 317 314 305 305
297 300 181 178 174 132 145 240 101 135 98 53 78 137 143 137 140 135 122 132 140 141 141 136 129 126 106 54 347 331 326 324 327 326 326 328 329 330 327 321 325 320 318 315 313 307 306 301 301
Height
1514 1515 1517 1518 1528 1531 1532 1513 1496 1490 1492 1481 1478 1473 1477 1480 1483 1498 1485 1489 1492 1497 1500 1504 1509 1510 1512 1512 1512 1515 1517 1519 1521 1522 1524 1526 1527 1528 1530 1531 1532 1533 1535 1535 1536 1537 1537 1538 1539
1512 1515 1516 1517 1532 1540 1528 1499 1495 1491 1485 1481 1480 1477 1474 1482 1478 1481 1486 1489 1493 1495 1498 1502 1508 1511 1512 1514 1515 1517 1519 1520 1522 1523 1525 1527 1528 1529 1531 1532 1533 1533 1534 1536 1538 1539 1539 1540 1541
1510 1514 1515 1518 1531 1533 1517 1491 1488 1485 1481 1483 1478 1477 1477 1480 1479 1480 1482 1484 1491 1495 1497 1501 1505 1511 1513 1515 1517 1518 1520 1521 1523 1524 1526 1527 1528 1530 1531 1532 1535 1536 1536 1537 1537 1539 1541 1542 1542
1509 1513 1515 1520 1521 1506 1495 1484 1488 1488 1483 1482 1479 1477 1479 1480 1478 1480 1482 1484 1487 1494 1497 1500 1504 1510 1512 1515 1516 1518 1520 1521 1522 1524 1526 1528 1529 1530 1532 1533 1534 1536 1537 1539 1540 1541 1542 1543 1544
1507 1510 1518 1520 1513 1498 1487 1483 1490 1488 1487 1481 1479 1476 1477 1479 1480 1480 1481 1485 1489 1494 1496 1500 1503 1508 1512 1514 1516 1518 1520 1521 1523 1525 1526 1528 1530 1531 1532 1534 1535 1537 1538 1539 1540 1542 1543 1544 1545
1506 1506 1523 1523 1509 1494 1488 1483 1489 1485 1480 1477 1478 1474 1475 1476 1477 1480 1482 1483 1489 1494 1497 1499 1502 1507 1511 1515 1517 1519 1522 1524 1525 1525 1526 1528 1530 1533 1534 1535 1536 1537 1539 1540 1541 1542 1543 1544 1545
1502 1509 1515 1511 1504 1497 1486 1483 1483 1477 1473 1471 1472 1474 1477 1477 1478 1479 1482 1485 1490 1493 1494 1499 1503 1507 1511 1514 1517 1519 1522 1524 1525 1525 1525 1526 1528 1531 1534 1536 1536 1537 1538 1540 1542 1543 1544 1545 1546
1499 1500 1502 1501 1504 1498 1480 1483 1479 1474 1468 1464 1466 1469 1476 1474 1477 1480 1482 1485 1488 1492 1495 1498 1502 1506 1510 1512 1515 1518 1521 1523 1525 1526 1527 1528 1530 1531 1532 1534 1536 1537 1539 1539 1541 1543 1545 1546 1546
1496 1502 1507 1498 1494 1484 1480 1482 1477 1474 1469 1466 1466 1462 1471 1475 1477 1478 1481 1484 1487 1490 1495 1499 1502 1505 1508 1512 1514 1516 1519 1521 1524 1527 1528 1528 1529 1530 1531 1533 1535 1536 1538 1539 1540 1542 1545 1547 1548
1491 1496 1491 1481 1480 1481 1480 1483 1480 1476 1469 1469 1469 1472 1473 1477 1479 1478 1479 1480 1485 1489 1494 1496 1499 1503 1507 1509 1512 1514 1517 1520 1522 1524 1527 1529 1529 1530 1531 1532 1533 1535 1537 1538 1539 1541 1544 1545 1547
1480 1477 1477 1475 1477 1478 1477 1481 1480 1477 1474 1469 1470 1474 1475 1476 1477 1479 1479 1481 1484 1488 1491 1497 1504 1507 1505 1507 1510 1514 1516 1518 1522 1525 1526 1526 1527 1529 1531 1532 1533 1535 1536 1538 1540 1541 1542 1544 1546
1479 1471 1473 1473 1474 1474 1475 1478 1477 1475 1471 1469 1468 1469 1473 1475 1476 1478 1475 1477 1481 1485 1489 1494 1503 1504 1502 1507 1510 1511 1514 1516 1516 1520 1524 1524 1525 1526 1529 1530 1532 1534 1535 1538 1540 1541 1543 1545 1546
1473 1470 1468 1470 1471 1470 1474 1471 1475 1471 1468 1468 1467 1466 1468 1471 1474 1475 1472 1473 1476 1481 1486 1494 1502 1506 1498 1509 1512 1512 1511 1511 1513 1516 1521 1523 1523 1526 1528 1529 1529 1530 1533 1535 1537 1540 1542 1542 1543
1463 1465 1465 1466 1466 1467 1472 1466 1467 1466 1466 1465 1465 1465 1465 1468 1471 1472 1472 1471 1475 1481 1483 1488 1495 1499 1498 1504 1510 1511 1509 1513 1515 1514 1520 1522 1522 1525 1527 1528 1528 1529 1530 1532 1534 1536 1537 1538 1539
1461 1466 1461 1460 1462 1465 1467 1463 1456 1461 1463 1460 1462 1461 1462 1464 1467 1469 1470 1469 1472 1478 1479 1485 1489 1491 1493 1496 1496 1500 1508 1510 1511 1513 1517 1519 1522 1524 1525 1526 1525 1526 1527 1529 1531 1532 1531 1533 1532
1461 1461 1467 1455 1455 1456 1462 1449 1450 1454 1456 1455 1455 1457 1458 1461 1463 1466 1464 1466 1470 1476 1479 1482 1485 1486 1487 1490 1497 1503 1506 1508 1509 1513 1514 1514 1518 1521 1523 1524 1524 1523 1525 1526 1529 1530 1528 1531 1527
1460 1463 1464 1458 1450 1452 1452 1448 1447 1449 1449 1449 1450 1452 1454 1455 1457 1460 1459 1462 1466 1472 1476 1478 1480 1481 1484 1490 1497 1502 1505 1506 1509 1511 1512 1513 1516 1519 1521 1523 1524 1523 1522 1523 1526 1525 1523 1524 1523
1458 1460 1451 1456 1446 1448 1448 1447 1445 1443 1444 1444 1444 1447 1449 1450 1452 1453 1456 1460 1465 1469 1474 1476 1477 1481 1485 1493 1499 1502 1505 1506 1507 1510 1514 1515 1515 1518 1520 1520 1521 1518 1519 1520 1521 1520 1520 1520 1520
1443 1448 1451 1445 1441 1445 1446 1442 1441 1436 1438 1439 1438 1441 1445 1445 1447 1449 1453 1458 1463 1467 1472 1475 1478 1481 1486 1490 1494 1498 1502 1504 1508 1511 1512 1514 1514 1515 1516 1516 1517 1516 1515 1516 1517 1517 1517 1517 1516
1440 1444 1448 1443 1435 1444 1441 1442 1434 1431 1430 1431 1431 1431 1435 1440 1443 1445 1452 1455 1460 1465 1471 1475 1478 1482 1487 1491 1495 1499 1501 1505 1506 1507 1508 1510 1511 1512 1512 1514 1514 1513 1514 1513 1514 1516 1516 1512 1512
1433 1439 1444 1449 1434 1436 1439 1444 1434 1424 1423 1426 1427 1429 1432 1435 1437 1442 1447 1453 1460 1466 1471 1474 1477 1481 1486 1490 1493 1496 1498 1502 1503 1505 1507 1507 1507 1508 1508 1509 1509 1509 1510 1512 1512 1512 1510 1509 1509
1432 1428 1433 1437 1444 1458 1434 1459 1435 1425 1422 1422 1424 1426 1429 1431 1436 1440 1445 1451 1459 1463 1467 1471 1474 1481 1483 1488 1492 1495 1497 1499 1502 1504 1503 1504 1503 1504 1505 1506 1505 1506 1508 1508 1507 1508 1507 1506 1505
1419 1424 1427 1429 1441 1445 1437 1453 1440 1425 1425 1422 1423 1428 1434 1429 1434 1440 1445 1451 1456 1461 1466 1470 1475 1480 1483 1488 1490 1492 1496 1498 1500 1502 1501 1501 1502 1503 1503 1505 1505 1505 1504 1504 1504 1504 1504 1502 1501
1413 1420 1424 1427 1438 1453 1436 1447 1447 1429 1423 1418 1425 1428 1433 1437 1438 1445 1450 1454 1457 1462 1466 1470 1472 1479 1481 1485 1490 1492 1494 1497 1499 1500 1501 1501 1502 1502 1503 1502 1502 1502 1501 1501 1501 1501 1499 1496 1495
1410 1422 1446 1453 1449 1443 1430 1442 1435 1418 1415 1416 1425 1429 1436 1440 1442 1444 1450 1456 1460 1463 1467 1470 1472 1476 1480 1483 1487 1490 1492 1496 1497 1500 1501 1500 1500 1501 1500 1499 1499 1499 1499 1497 1495 1494 1492 1490 1487
1405 1412 1439 1448 1453 1442 1424 1436 1426 1411 1411 1414 1421 1431 1431 1440 1447 1450 1454 1458 1463 1468 1471 1474 1476 1477 1481 1484 1486 1489 1492 1495 1496 1497 1497 1497 1496 1496 1495 1494 1493 1493 1492 1491 1489 1487 1485 1482 1480
1395 1404 1405 1427 1433 1438 1435 1420 1413 1413 1414 1417 1425 1431 1435 1442 1443 1450 1456 1462 1466 1471 1474 1476 1480 1480 1483 1485 1487 1490 1492 1493 1494 1494 1495 1494 1492 1491 1490 1489 1488 1486 1485 1483 1481 1479 1477 1475 1473
1385 1391 1411 1420 1444 1446 1439 1430 1429 1431 1430 1424 1425 1429 1437 1440 1443 1448 1455 1460 1468 1471 1475 1479 1482 1483 1483 1485 1487 1489 1490 1491 1491 1490 1490 1488 1487 1486 1485 1484 1483 1481 1479 1476 1475 1473 1471 1468 1465
1382 1386 1393 1411 1421 1447 1450 1446 1427 1430 1432 1435 1430 1432 1430 1439 1445 1448 1453 1461 1470 1475 1477 1479 1482 1484 1484 1485 1486 1487 1488 1488 1487 1487 1486 1484 1483 1482 1481 1480 1478 1476 1473 1471 1469 1467 1464 1462 1459
1379 1387 1389 1404 1420 1423 1433 1447 1427 1429 1425 1438 1435 1439 1442 1440 1445 1449 1445 1461 1472 1477 1478 1479 1480 1483 1485 1485 1486 1487 1486 1486 1484 1484 1483 1482 1480 1479 1478 1476 1475 1472 1469 1467 1464 1461 1459 1456 1451